Regional Weather Roundup
Issued by NWS

Home | Current Version | Previous Version | Text Only | Print | Product List | Glossary Off
Versions: 1 2 3 4 5 6 7 8 9 10 11 12 13 14 15 16 17 18 19 20 21 22 23 24 25 26 27 28 29 30 31 32 33 34 35 36 37 38 39 40 41 42 43 44 45 46 47 48 49 50

000
ASUS43 KDTX 190910
RWRMI
MICHIGAN HOURLY REGIONAL WEATHER ROUNDUP
NATIONAL WEATHER SERVICE DETROIT/PONTIAC MI
500 AM EDT TUE SEP 19 2017

NOTE: "FAIR" INDICATES FEW OR NO CLOUDS BELOW 12,000 FEET WITH NO
SIGNIFICANT WEATHER AND/OR OBSTRUCTION TO VISIBILITY.

MIZ047>049-052>055-059>063-066>070-074>076-081>083-191000-
SOUTHEAST LOWER MICHIGAN

CITY           SKY/WX    TMP DP  RH WIND       PRES   REMARKS
ADRIAN         CLOUDY    64  60  87 E7        30.01S
ALMA           CLOUDY    52  50  95 E5        30.03F
ANN ARBOR      CLOUDY    63  58  83 N5        30.00F
BAD AXE        PTCLDY    48  47  95 CALM      30.04F
CARO           PTCLDY    53  51  93 CALM      30.03S
DETROIT CITY   CLOUDY    63  60  90 N3        30.00F
DETROIT        CLOUDY    64  61  90 N6        30.00F
FLINT          MOCLDY    58  55  90 E5        30.03S
GROSSE ILE     CLOUDY    64  63  94 N3        29.99S
HILLSDALE      FOG       63  61  94 E7        30.00S VSB 1
HOWELL         CLOUDY    58  53  85 CALM      30.02S

CITY           SKY/WX    TMP DP  RH WIND       PRES   REMARKS
JACKSON        CLOUDY    64  59  83 E8        30.00F
LAMBERTVILLE   CLOUDY    65  63  90 CALM      29.99S
LANSING        CLOUDY    58  53  84 NE5       30.02F
LAPEER         CLOUDY    58  56  92 SE3       30.03S
MASON          CLOUDY    60  56  87 CALM      30.01S
MONROE         CLOUDY    65  62  91 CALM      29.99S
MT. CLEMENS    CLOUDY    62  62 100 N3        29.99F
PONTIAC        CLOUDY    62  57  83 NE3       30.01S
PORT HOPE        N/A     64  57  78 NE7       30.03F
PORT HURON     CLOUDY    64  63  94 CALM      30.01F
TRI CITIES     CLOUDY    55  54  96 NE5       30.04F
MIDLAND        FAIR      52  52 100 CALM      30.03F
TROY           CLOUDY    64  59  86 N5        30.02F
SAGINAW HB     PTCLDY    52  52 100 N3        30.03F
$$
MIZ043>046-050>051-056>058-064>065-071>073-077>080-191000-
SOUTHWEST LOWER MICHIGAN

CITY           SKY/WX    TMP DP  RH WIND       PRES   REMARKS
BATTLE CREEK   CLOUDY    67  64  90 SE8       29.99F FOG
BENTON HARBOR  MOCLDY    64  61  90 E6        29.95F
BIG RAPIDS     MOCLDY    54  53  94 CALM      30.02F
COLDWATER      CLOUDY    65  65 100 SE7       29.99S FOG
FREMONT        CLOUDY    60  56  89 E6        30.00S
HOLLAND        CLOUDY    64  61  90 E8        29.98F
GRAND RAPIDS   MOCLDY    60  59  96 E7        30.00S
IONIA          CLOUDY    58  56  91 E5        30.01S
KALAMAZOO      CLOUDY    67  63  87 VRB3      29.98F FOG
LUDINGTON      CLOUDY    57  55  91 E7        30.00F
MARSHALL       CLOUDY    64  64  98 E6        29.99S FOG
MOUNT PLEASANT CLOUDY    56  55  97 CALM      30.03S
MUSKEGON       CLOUDY    63  59  87 E7        29.99S
SOUTH HAVEN    LGT RAIN  65  64  96 E6        29.96F
$$
MIZ016>042-191000-
NORTHERN LOWER MICHIGAN

CITY           SKY/WX    TMP DP  RH WIND       PRES   REMARKS
ALPENA         CLEAR     46  45  96 CALM      30.07F
BEAVER ISLAND  CLOUDY    56  53  91 CALM      30.08S
CADILLAC       CLOUDY    57  52  84 CALM      30.04R
CHARLEVOIX     CLOUDY    55  51  86 CALM      30.10S
FRANKFORT      PTCLDY    60  56  87 CALM      30.03S
GAYLORD        MOCLDY    52  45  77 CALM      30.09R
GRAYLING       CLOUDY    45  43  92 CALM      30.07S
HARBOR SPRINGS CLOUDY    54  53  95 CALM      30.07S
HOUGHTON LAKE  CLOUDY    46  46 100 E5        30.05F
MANISTEE       PTCLDY    57  54  89 E6        30.02R
OSCODA         PTCLDY    48  46  94 CALM      30.05S
PELLSTON       CLOUDY    50  49  96 CALM      30.08R
ROGERS CITY    PTCLDY    49  47  96 CALM      30.07S
TRAVERSE CITY  PTCLDY    56  52  86 E5        30.04S
$$
MIZ007>008-015-191000-
EASTERN UPPER MICHIGAN

CITY           SKY/WX    TMP DP  RH WIND       PRES   REMARKS
KINROSS        CLOUDY    56  50  80 NE7       30.09S
MACKINAC ISLAN CLOUDY    57  53  88 NE5       30.08S
NEWBERRY       MOCLDY    52  51  96 CALM      30.09S
S. S. MARIE    CLOUDY    57  50  77 CALM      30.09R
MUNISING         N/A     56  50  80 CALM      30.07F
$$
MIZ004>006-011>014-085-191000-
CENTRAL UPPER MICHIGAN

CITY           SKY/WX    TMP DP  RH WIND       PRES   REMARKS
MANISTIQUE     CLOUDY    53  48  81 E3        30.07F
ESCANABA       LGT RAIN  57  54  89 N6        30.06F
MENOMINEE      CLOUDY    59  56  89 NE7       30.03F
SAWYER-GWINN   CLOUDY    56  49  79 SE5       30.07S
$$
MIZ001>003-009>011-084-191000-
WESTERN UPPER MICHIGAN

CITY           SKY/WX    TMP DP  RH WIND       PRES   REMARKS
IRON MOUNTAIN  CLOUDY    57  50  77 SE3       30.03F
HOUGHTON       CLOUDY    57  55  93 E7        30.04S
COPPER HARBOR    N/A     57  54  89 S7        30.04S
IRONWOOD       CLOUDY    57  51  80 E5        30.01S
$$

ABBREVIATIONS USED IN REMARKS
   TC - TEMPERATURE IN CELSIUS
  WCI - WIND CHILL INDEX
   HX - HEAT INDEX
  VSB - VISIBILITY





USA.gov is the U.S. government's official web portal to all federal, state and local government web resources and services.